Elizabeth City, NC

9:42 PM EDT on March 30, 2017 (GMT -0400)
Elizabeth City Cgas-Regional

Weather History for KECG - October, 2012

Change the Weather History Date:

Thursday, October 4, 2012

  Actual Average Record
Temperature  
Mean Temperature 79 °F 66 °F  
Max Temperature 88 °F 76 °F 94 °F (1986)
Min Temperature 69 °F 57 °F 31 °F (1974)
Degree Days  
Heating Degree Days 0 2  
Month to date heating degree days 0 8  
Since 1 July heating degree days 2 20  
Cooling Degree Days 14 3  
Month to date cooling degree days 50 15  
Year to date cooling degree days 2182 1537  
Growing Degree Days 29 (Base 50)    
Moisture  
Dew Point 67 °F    
Average Humidity 64    
Maximum Humidity 87    
Minimum Humidity 40    
Precipitation  
Precipitation 0.00 in 0.12 in 2.26 in (1964)
Month to date precipitation 0.12 0.46  
Year to date precipitation 38.25 38.35  
Snow  
Snow 0.00 in - 0.00 in (2002)
Month to date snowfall 0.0  
Since 1 July snowfall 0.0  
Snow Depth 0.00 in    
Sea Level Pressure  
Sea Level Pressure 30.15 in    
Wind  
Wind Speed 8 mph (WSW)    
Max Wind Speed 20 mph    
Max Gust Speed 23 mph    
Visibility 9 miles    
Events      
T = Trace of Precipitation, MM = Missing Value Source: NWS Daily Summary

Daily Weather History Graph

Daily Weather History Graph

Search for Another Location

Airport or City:

Trip Planner

Search our weather history database for the weather conditions in past years. The results will help you decide how hot, cold, wet, or windy it might be!

Date:

Astronomy

Oct. 04, 2012 Rise Set
Actual Time 7:02 AM EDT 6:43 PM EDT
Civil Twilight 6:36 AM EDT 7:08 PM EDT
Nautical Twilight 6:07 AM EDT 7:38 PM EDT
Astronomical Twilight 5:37 AM EDT 8:08 PM EDT
Moon 9:25 PM EDT (10/4) 11:09 AM EDT (10/4)
Length of Visible Light 12h 31m
Length of Day
11h 40m
Waning Gibbous, 82% of the Moon is Illuminated
Oct 4
Waning Gibbous
Oct 8
Last Quarter
Oct 15
New
Oct 21
First Quarter
Oct 29
Full

Hourly Weather History & Observations

Time (EDT) Temp. Heat Index Dew Point Humidity Pressure Visibility Wind Dir Wind Speed Gust Speed Precip Events Conditions
12:54 AM 77.0 °F - 72.0 °F 84% 30.15 in 5.0 mi SSW 5.8 mph - N/A   Haze
1:54 AM 77.0 °F - 72.0 °F 84% 30.16 in 9.0 mi SSW 8.1 mph - N/A   Clear
2:54 AM 75.9 °F - 72.0 °F 87% 30.15 in 8.0 mi SW 8.1 mph - N/A   Clear
3:54 AM 75.0 °F - 70.0 °F 84% 30.14 in 4.0 mi SW 5.8 mph - N/A   Haze
4:54 AM 73.9 °F - 70.0 °F 87% 30.15 in 5.0 mi SW 5.8 mph - N/A   Clear
5:54 AM 73.9 °F - 70.0 °F 87% 30.16 in 7.0 mi SW 5.8 mph - N/A   Clear
6:54 AM 73.0 °F - 69.1 °F 87% 30.18 in 7.0 mi WSW 6.9 mph - N/A   Partly Cloudy
7:54 AM 75.0 °F - 71.1 °F 87% 30.18 in 7.0 mi WSW 3.5 mph - N/A   Unknown
8:54 AM 79.0 °F - 71.1 °F 77% 30.19 in 10.0 mi WSW 5.8 mph - N/A   Clear
9:54 AM 80.1 °F 82.7 °F 68.0 °F 67% 30.20 in 10.0 mi West 11.5 mph - N/A   Scattered Clouds
10:54 AM 82.9 °F 85.0 °F 66.0 °F 56% 30.20 in 10.0 mi West 6.9 mph - N/A   Clear
11:54 AM 86.0 °F 86.3 °F 62.1 °F 44% 30.19 in 10.0 mi WNW 12.7 mph - N/A   Clear
12:54 PM 87.1 °F 87.0 °F 61.0 °F 41% 30.17 in 10.0 mi WSW 11.5 mph 19.6 mph N/A   Clear
1:54 PM 86.0 °F 87.3 °F 64.0 °F 48% 30.15 in 10.0 mi WSW 12.7 mph - N/A   Mostly Cloudy
2:54 PM 84.0 °F 85.8 °F 64.9 °F 53% 30.13 in 10.0 mi West 13.8 mph - N/A   Partly Cloudy
3:54 PM 86.0 °F 88.2 °F 66.0 °F 51% 30.12 in 10.0 mi WSW 10.4 mph 19.6 mph N/A   Clear
4:54 PM 84.0 °F 85.8 °F 64.9 °F 53% 30.11 in 10.0 mi SW 11.5 mph - N/A   Clear
6:54 PM 77.0 °F - 64.9 °F 66% 30.12 in 10.0 mi West 5.8 mph - N/A   Clear
7:54 PM 75.0 °F - 64.0 °F 69% 30.13 in 10.0 mi WSW 6.9 mph - N/A   Clear
8:54 PM 73.0 °F - 64.0 °F 73% 30.14 in 10.0 mi West 5.8 mph - N/A   Clear
9:54 PM 71.1 °F - 63.0 °F 75% 30.14 in 10.0 mi WSW 6.9 mph - N/A   Clear
10:54 PM 71.1 °F - 63.0 °F 75% 30.15 in 10.0 mi West 8.1 mph - N/A   Clear
11:54 PM 70.0 °F - 63.0 °F 78% 30.15 in 10.0 mi WSW 6.9 mph - N/A   Clear